FIA5617 LUKK-EGGW

Flight info

Callsign FIA5617
Flight time 3h 21m
Altitude 36000
Route UNIRA DCT ARPIG DCT HUMOR DCT KARIL DCT MAVOR DCT LIKSA DCT OKG DCT VELIS DCT SWALM DCT NOGRO M40 RINIS
Aircraft A321/M-SDE3FGHIRWY/LB1

Departure

Time 2026-04-28 14:18
Airport Chişinău International Airport (LUKK)

Arrival

Time 2026-04-28 17:40
Airport London Luton Airport (EGGW)
Time Latitude Longitude Altitude Speed Heading
2026-04-28 13:52 46.93223 28.93733 409 ft 0 kts 99°
2026-04-28 14:14 46.93218 28.93777 408 ft 9 kts 104°
2026-04-28 14:14 46.93170 28.93805 408 ft 10 kts 184°
2026-04-28 14:15 46.93116 28.93859 407 ft 11 kts 101°
2026-04-28 14:15 46.93104 28.93982 407 ft 15 kts 98°
2026-04-28 14:15 46.93091 28.94142 405 ft 16 kts 96°
2026-04-28 14:15 46.93078 28.94300 405 ft 15 kts 97°
2026-04-28 14:16 46.93067 28.94436 407 ft 13 kts 98°
2026-04-28 14:16 46.93048 28.94634 407 ft 25 kts 97°
2026-04-28 14:16 46.93029 28.94869 410 ft 22 kts 97°
2026-04-28 14:16 46.93006 28.95083 407 ft 17 kts 119°
2026-04-28 14:17 46.92970 28.95108 410 ft 10 kts 169°
2026-04-28 14:17 46.92892 28.95115 409 ft 11 kts 178°
2026-04-28 14:17 46.92828 28.95088 409 ft 9 kts 233°
2026-04-28 14:17 46.92820 28.95005 409 ft 9 kts 268°
2026-04-28 14:18 46.92813 28.94721 408 ft 65 kts 268°
2026-04-28 14:18 46.92792 28.93673 408 ft 133 kts 268°
2026-04-28 14:18 46.92752 28.92097 504 ft 168 kts 273°
2026-04-28 14:18 46.92700 28.90393 1089 ft 168 kts 271°
2026-04-28 14:19 46.92661 28.88659 1685 ft 177 kts 271°
2026-04-28 14:19 46.92642 28.87109 2114 ft 186 kts 273°
2026-04-28 14:19 46.92614 28.85171 2642 ft 195 kts 271°
2026-04-28 14:19 46.92578 28.83182 3154 ft 201 kts 271°
2026-04-28 14:20 46.92535 28.81094 3633 ft 211 kts 270°
2026-04-28 14:20 46.92490 28.78888 4173 ft 224 kts 271°
2026-04-28 14:20 46.92442 28.76536 4710 ft 238 kts 271°
2026-04-28 14:20 46.92391 28.74042 5237 ft 251 kts 270°
2026-04-28 14:21 46.92372 28.71492 5731 ft 256 kts 278°
2026-04-28 14:21 46.92780 28.68965 6260 ft 256 kts 290°
2026-04-28 14:21 46.93462 28.66558 6769 ft 257 kts 295°
2026-04-28 14:21 46.94234 28.64179 7278 ft 260 kts 296°
2026-04-28 14:22 46.95022 28.61782 7799 ft 263 kts 295°
2026-04-28 14:22 46.95794 28.59352 8651 ft 262 kts 294°
2026-04-28 14:22 46.96537 28.56917 9551 ft 261 kts 294°
2026-04-28 14:22 46.97249 28.54514 10379 ft 262 kts 293°
2026-04-28 14:23 46.97985 28.51985 10794 ft 276 kts 292°
2026-04-28 14:23 46.98742 28.49352 11304 ft 286 kts 292°
2026-04-28 14:23 46.99523 28.46613 11819 ft 296 kts 292°
2026-04-28 14:23 47.00330 28.43776 12339 ft 305 kts 292°
2026-04-28 14:24 47.01158 28.40865 12877 ft 314 kts 292°
2026-04-28 14:24 47.02011 28.37867 13407 ft 321 kts 292°
2026-04-28 14:24 47.02877 28.34821 13964 ft 326 kts 292°
2026-04-28 14:24 47.03751 28.31739 14448 ft 329 kts 292°
2026-04-28 14:25 47.04635 28.28624 15040 ft 332 kts 292°
2026-04-28 14:25 47.05529 28.25477 15662 ft 335 kts 292°
2026-04-28 14:25 47.06418 28.22348 16273 ft 337 kts 292°
2026-04-28 14:25 47.07324 28.19151 16878 ft 341 kts 292°
2026-04-28 14:26 47.08234 28.15924 17480 ft 343 kts 292°
2026-04-28 14:26 47.09149 28.12670 18074 ft 346 kts 292°
2026-04-28 14:26 47.10070 28.09383 18632 ft 349 kts 292°
2026-04-28 14:26 47.10997 28.06075 19148 ft 351 kts 292°
2026-04-28 14:27 47.11930 28.02743 19681 ft 353 kts 292°
2026-04-28 14:27 47.12869 27.99401 20203 ft 355 kts 292°
2026-04-28 14:27 47.13813 27.96040 20711 ft 357 kts 292°
2026-04-28 14:27 47.14748 27.92694 21217 ft 359 kts 292°
2026-04-28 14:28 47.15696 27.89282 21711 ft 361 kts 292°
2026-04-28 14:28 47.16645 27.85858 22223 ft 363 kts 292°
2026-04-28 14:28 47.17624 27.82426 22701 ft 365 kts 293°
2026-04-28 14:28 47.18659 27.78995 23167 ft 367 kts 294°
2026-04-28 14:29 47.19724 27.75563 23640 ft 370 kts 294°
2026-04-28 14:29 47.20803 27.72119 24049 ft 371 kts 294°
2026-04-28 14:29 47.21872 27.68698 24456 ft 373 kts 294°
2026-04-28 14:29 47.22952 27.65217 24865 ft 374 kts 294°
2026-04-28 14:30 47.24027 27.61724 25267 ft 375 kts 294°
2026-04-28 14:30 47.25100 27.58214 25671 ft 377 kts 293°
2026-04-28 14:30 47.26178 27.54679 26067 ft 378 kts 293°
2026-04-28 14:30 47.27255 27.51138 26457 ft 379 kts 293°
2026-04-28 14:31 47.28332 27.47585 26857 ft 380 kts 293°
2026-04-28 14:31 47.29411 27.44024 27255 ft 382 kts 293°
2026-04-28 14:31 47.30482 27.40485 27634 ft 383 kts 293°
2026-04-28 14:31 47.31566 27.36894 28005 ft 384 kts 293°
2026-04-28 14:32 47.32652 27.33292 28368 ft 386 kts 293°
2026-04-28 14:32 47.33603 27.29591 28705 ft 387 kts 286°
2026-04-28 14:32 47.34173 27.25706 29027 ft 389 kts 282°
2026-04-28 14:32 47.34683 27.21780 29360 ft 390 kts 282°
2026-04-28 14:33 47.35197 27.17839 29701 ft 392 kts 282°
2026-04-28 14:33 47.35713 27.13885 30034 ft 393 kts 282°
2026-04-28 14:33 47.36234 27.09912 30359 ft 394 kts 282°
2026-04-28 14:33 47.36752 27.05932 30690 ft 394 kts 282°
2026-04-28 14:34 47.37774 26.98062 31446 ft 391 kts 282°
2026-04-28 14:34 47.38281 26.94132 31857 ft 389 kts 282°
2026-04-28 14:34 47.38785 26.90217 32251 ft 387 kts 282°
2026-04-28 14:35 47.39231 26.86753 32588 ft 386 kts 282°
2026-04-28 14:35 47.39728 26.82851 32965 ft 385 kts 282°
2026-04-28 14:35 47.40221 26.78974 33340 ft 384 kts 282°
2026-04-28 14:35 47.40714 26.75104 33728 ft 383 kts 282°
2026-04-28 14:36 47.41204 26.71251 34114 ft 382 kts 282°
2026-04-28 14:36 47.41693 26.67402 34418 ft 381 kts 282°
2026-04-28 14:36 47.42180 26.63556 34667 ft 381 kts 282°
2026-04-28 14:36 47.42661 26.59754 34876 ft 382 kts 282°
2026-04-28 14:37 47.43146 26.55885 35075 ft 383 kts 282°
2026-04-28 14:37 47.43630 26.51996 35280 ft 384 kts 282°
2026-04-28 14:37 47.44113 26.48115 35481 ft 385 kts 282°
2026-04-28 14:37 47.44598 26.44221 35688 ft 386 kts 282°
2026-04-28 14:38 47.45083 26.40313 35887 ft 387 kts 282°
2026-04-28 14:38 47.45567 26.36398 36079 ft 388 kts 282°
2026-04-28 14:38 47.46052 26.32472 36147 ft 389 kts 282°
2026-04-28 14:39 47.47001 26.24740 36165 ft 389 kts 282°
2026-04-28 14:39 47.47952 26.16912 36173 ft 389 kts 281°
2026-04-28 14:40 47.48910 26.09028 36175 ft 389 kts 282°
2026-04-28 14:40 47.49865 26.01148 36179 ft 389 kts 281°
2026-04-28 14:41 47.50808 25.93272 36170 ft 389 kts 281°
2026-04-28 14:41 47.51730 25.85378 36164 ft 389 kts 281°
2026-04-28 14:42 47.52512 25.77439 36167 ft 390 kts 279°
2026-04-28 14:42 47.53229 25.69490 36168 ft 390 kts 279°
2026-04-28 14:43 47.53962 25.61534 36167 ft 390 kts 279°
2026-04-28 14:43 47.54718 25.53589 36170 ft 390 kts 280°
2026-04-28 14:44 47.55467 25.45632 36166 ft 390 kts 279°
2026-04-28 14:44 47.56194 25.37739 36163 ft 390 kts 279°
2026-04-28 14:45 47.56920 25.29787 36164 ft 390 kts 279°
2026-04-28 14:45 47.57649 25.21824 36143 ft 389 kts 279°
2026-04-28 14:46 47.58369 25.13871 36158 ft 389 kts 279°
2026-04-28 14:46 47.59076 25.05917 36157 ft 389 kts 279°
2026-04-28 14:47 47.59786 24.97976 36158 ft 389 kts 279°
2026-04-28 14:47 47.60488 24.90036 36157 ft 389 kts 279°
2026-04-28 14:48 47.61178 24.82091 36154 ft 389 kts 279°
2026-04-28 14:48 47.61866 24.74152 36156 ft 388 kts 279°
2026-04-28 14:49 47.62558 24.66211 36157 ft 389 kts 279°
2026-04-28 14:49 47.63236 24.58309 36153 ft 389 kts 279°
2026-04-28 14:50 47.63907 24.50360 36154 ft 389 kts 279°
2026-04-28 14:50 47.64575 24.42413 36152 ft 389 kts 279°
2026-04-28 14:51 47.65234 24.34449 36147 ft 388 kts 279°
2026-04-28 14:51 47.65890 24.26490 36148 ft 388 kts 279°
2026-04-28 14:52 47.66548 24.18535 36144 ft 389 kts 279°
2026-04-28 14:52 47.67187 24.10579 36149 ft 388 kts 279°
2026-04-28 14:53 47.67721 24.03957 36149 ft 389 kts 279°
2026-04-28 14:53 47.67912 24.01621 36146 ft 388 kts 279°
2026-04-28 14:54 47.68556 23.93660 36148 ft 389 kts 279°
2026-04-28 14:54 47.69178 23.85750 36146 ft 389 kts 279°
2026-04-28 14:55 47.69793 23.77781 36145 ft 389 kts 279°
2026-04-28 14:55 47.70404 23.69819 36143 ft 388 kts 279°
2026-04-28 14:56 47.71019 23.61852 36119 ft 387 kts 279°
2026-04-28 14:56 47.71626 23.53915 36142 ft 387 kts 279°
2026-04-28 14:57 47.72123 23.47314 36145 ft 387 kts 278°
2026-04-28 14:57 47.72813 23.38083 36146 ft 387 kts 278°
2026-04-28 14:58 47.73403 23.30144 36150 ft 386 kts 278°
2026-04-28 14:58 47.73885 23.23490 36147 ft 386 kts 278°
2026-04-28 14:59 47.74458 23.15613 36145 ft 386 kts 278°
2026-04-28 14:59 47.75030 23.07675 36140 ft 386 kts 278°
2026-04-28 15:00 47.75600 22.99743 36136 ft 386 kts 278°
2026-04-28 15:00 47.76152 22.91899 36138 ft 386 kts 278°
2026-04-28 15:01 47.76702 22.83961 36142 ft 386 kts 278°
2026-04-28 15:01 47.77245 22.76010 36140 ft 387 kts 278°
2026-04-28 15:02 47.77789 22.68062 36142 ft 387 kts 278°
2026-04-28 15:02 47.78330 22.60102 36147 ft 387 kts 278°
2026-04-28 15:03 47.78866 22.52150 36149 ft 387 kts 278°
2026-04-28 15:03 47.79494 22.44215 36151 ft 385 kts 284°
2026-04-28 15:04 47.81169 22.36674 36155 ft 385 kts 290°
2026-04-28 15:04 47.82937 22.29155 36156 ft 385 kts 290°
2026-04-28 15:05 47.84686 22.21631 36153 ft 385 kts 289°
2026-04-28 15:05 47.86429 22.14096 36162 ft 385 kts 289°
2026-04-28 15:06 47.88174 22.06564 36165 ft 385 kts 290°
2026-04-28 15:06 47.89917 21.99032 36162 ft 384 kts 290°
2026-04-28 15:07 47.91640 21.91548 36165 ft 384 kts 290°
2026-04-28 15:07 47.93373 21.84002 36166 ft 384 kts 290°
2026-04-28 15:08 47.95100 21.76457 36166 ft 384 kts 289°
2026-04-28 15:08 47.96819 21.68902 36162 ft 384 kts 289°
2026-04-28 15:09 47.98525 21.61361 36168 ft 383 kts 289°
2026-04-28 15:09 48.00225 21.53834 36160 ft 383 kts 289°
2026-04-28 15:10 48.01924 21.46301 36163 ft 383 kts 289°
2026-04-28 15:10 48.03614 21.38759 36158 ft 383 kts 289°
2026-04-28 15:11 48.05300 21.31212 36166 ft 383 kts 289°
2026-04-28 15:11 48.06985 21.23662 36160 ft 383 kts 289°
2026-04-28 15:12 48.08650 21.16159 36162 ft 383 kts 289°
2026-04-28 15:12 48.10320 21.08600 36162 ft 383 kts 289°
2026-04-28 15:13 48.11989 21.01037 36158 ft 383 kts 289°
2026-04-28 15:13 48.13647 20.93472 36155 ft 383 kts 289°
2026-04-28 15:14 48.15225 20.86262 36161 ft 383 kts 289°
2026-04-28 15:14 48.16883 20.78688 36159 ft 383 kts 289°
2026-04-28 15:15 48.18535 20.71109 36152 ft 383 kts 289°
2026-04-28 15:15 48.20172 20.63521 36150 ft 382 kts 289°
2026-04-28 15:16 48.21805 20.55937 36147 ft 382 kts 288°
2026-04-28 15:16 48.23440 20.48336 36147 ft 384 kts 289°
2026-04-28 15:17 48.25078 20.40695 36136 ft 385 kts 288°
2026-04-28 15:17 48.26712 20.33045 36136 ft 385 kts 288°
2026-04-28 15:18 48.28334 20.25382 36129 ft 385 kts 288°
2026-04-28 15:18 48.29957 20.17722 36130 ft 385 kts 288°
2026-04-28 15:19 48.31575 20.10059 36125 ft 385 kts 288°
2026-04-28 15:19 48.33189 20.02377 36125 ft 385 kts 288°
2026-04-28 15:20 48.34796 19.94697 36122 ft 385 kts 288°
2026-04-28 15:20 48.36394 19.87007 36122 ft 385 kts 288°
2026-04-28 15:21 48.37985 19.79364 36117 ft 385 kts 288°
2026-04-28 15:21 48.39592 19.71615 36116 ft 385 kts 288°
2026-04-28 15:22 48.41166 19.63981 36118 ft 384 kts 288°
2026-04-28 15:22 48.42741 19.56295 36119 ft 384 kts 288°
2026-04-28 15:23 48.44318 19.48606 36119 ft 384 kts 288°
2026-04-28 15:23 48.45887 19.40912 36120 ft 384 kts 288°
2026-04-28 15:24 48.47442 19.33224 36112 ft 384 kts 288°
2026-04-28 15:24 48.48998 19.25519 36122 ft 384 kts 288°
2026-04-28 15:25 48.50545 19.17822 36127 ft 384 kts 288°
2026-04-28 15:25 48.52096 19.10100 36127 ft 384 kts 288°
2026-04-28 15:26 48.53635 19.02387 36122 ft 384 kts 288°
2026-04-28 15:26 48.55170 18.94657 36134 ft 385 kts 288°
2026-04-28 15:27 48.56705 18.86917 36133 ft 385 kts 288°
2026-04-28 15:27 48.58234 18.79179 36136 ft 385 kts 288°
2026-04-28 15:28 48.59759 18.71441 36137 ft 385 kts 287°
2026-04-28 15:28 48.61272 18.63688 36142 ft 385 kts 287°
2026-04-28 15:29 48.62783 18.55931 36143 ft 385 kts 287°
2026-04-28 15:29 48.64295 18.48170 36144 ft 385 kts 287°
2026-04-28 15:30 48.65796 18.40406 36144 ft 385 kts 287°
2026-04-28 15:30 48.67294 18.32641 36151 ft 385 kts 287°
2026-04-28 15:31 48.68780 18.24925 36147 ft 385 kts 287°
2026-04-28 15:31 48.70265 18.17145 36148 ft 385 kts 287°
2026-04-28 15:32 48.71745 18.09349 36143 ft 386 kts 287°
2026-04-28 15:32 48.73224 18.01529 36144 ft 387 kts 287°
2026-04-28 15:33 48.74699 17.93698 36143 ft 386 kts 287°
2026-04-28 15:33 48.76168 17.85872 36142 ft 386 kts 287°
2026-04-28 15:34 48.77638 17.78039 36159 ft 386 kts 287°
2026-04-28 15:34 48.79105 17.70199 36143 ft 387 kts 287°
2026-04-28 15:35 48.80560 17.62345 36166 ft 387 kts 286°
2026-04-28 15:35 48.82767 17.50567 36172 ft 387 kts 288°
2026-04-28 15:36 48.84500 17.42839 36178 ft 387 kts 290°
2026-04-28 15:36 48.86308 17.35154 36180 ft 387 kts 290°
2026-04-28 15:37 48.88068 17.27441 36178 ft 386 kts 289°
2026-04-28 15:37 48.89497 17.21009 36179 ft 387 kts 289°
2026-04-28 15:38 48.91492 17.11949 36176 ft 387 kts 289°
2026-04-28 15:38 48.93199 17.04197 36170 ft 387 kts 289°
2026-04-28 15:39 48.94909 16.96444 36165 ft 387 kts 289°
2026-04-28 15:39 48.96599 16.88737 36159 ft 387 kts 289°
2026-04-28 15:40 48.98294 16.80965 36165 ft 387 kts 289°
2026-04-28 15:40 48.99985 16.73187 36166 ft 387 kts 289°
2026-04-28 15:41 49.01672 16.65400 36166 ft 387 kts 289°
2026-04-28 15:41 49.03354 16.57609 36167 ft 387 kts 289°
2026-04-28 15:42 49.05030 16.49817 36160 ft 387 kts 289°
2026-04-28 15:42 49.06701 16.42009 36168 ft 387 kts 288°
2026-04-28 15:43 49.08368 16.34196 36168 ft 387 kts 288°
2026-04-28 15:43 49.10027 16.26382 36166 ft 387 kts 288°
2026-04-28 15:44 49.11684 16.18561 36165 ft 387 kts 288°
2026-04-28 15:44 49.13342 16.10734 36165 ft 387 kts 288°
2026-04-28 15:45 49.14977 16.02937 36167 ft 389 kts 288°
2026-04-28 15:45 49.16817 15.95171 36165 ft 389 kts 292°
2026-04-28 15:46 49.18983 15.87539 36171 ft 389 kts 294°
2026-04-28 15:46 49.20780 15.81244 36172 ft 389 kts 293°
2026-04-28 15:47 49.22876 15.73624 36165 ft 389 kts 292°
2026-04-28 15:47 49.25260 15.64726 36169 ft 389 kts 292°
2026-04-28 15:48 49.26977 15.58298 36159 ft 390 kts 292°
2026-04-28 15:48 49.29032 15.50620 36173 ft 390 kts 292°
2026-04-28 15:49 49.31079 15.42991 36166 ft 390 kts 292°
2026-04-28 15:49 49.33128 15.35307 36160 ft 390 kts 292°
2026-04-28 15:50 49.35166 15.27613 36164 ft 390 kts 291°
2026-04-28 15:50 49.37200 15.19900 36165 ft 390 kts 292°
2026-04-28 15:51 49.39231 15.12177 36162 ft 390 kts 291°
2026-04-28 15:51 49.41260 15.04449 36167 ft 390 kts 291°
2026-04-28 15:52 49.43283 14.96714 36169 ft 390 kts 291°
2026-04-28 15:52 49.45302 14.88977 36155 ft 390 kts 291°
2026-04-28 15:53 49.47320 14.81216 36165 ft 391 kts 291°
2026-04-28 15:53 49.49331 14.73442 36177 ft 391 kts 291°
2026-04-28 15:54 49.51345 14.65662 36173 ft 391 kts 291°
2026-04-28 15:54 49.53352 14.57879 36174 ft 391 kts 291°
2026-04-28 15:55 49.55344 14.50078 36162 ft 391 kts 291°
2026-04-28 15:55 49.57338 14.42267 36170 ft 392 kts 291°
2026-04-28 15:56 49.59332 14.34440 36173 ft 393 kts 291°
2026-04-28 15:56 49.61324 14.26600 36177 ft 393 kts 291°
2026-04-28 15:57 49.63308 14.18758 36178 ft 393 kts 291°
2026-04-28 15:57 49.65290 14.10905 36177 ft 393 kts 291°
2026-04-28 15:58 49.67269 14.03044 36176 ft 394 kts 291°
2026-04-28 15:58 49.69241 13.95159 36181 ft 394 kts 291°
2026-04-28 15:59 49.71211 13.87252 36182 ft 394 kts 291°
2026-04-28 15:59 49.73174 13.79352 36181 ft 394 kts 290°
2026-04-28 16:00 49.75126 13.71442 36179 ft 394 kts 290°
2026-04-28 16:00 49.77079 13.63532 36170 ft 394 kts 290°
2026-04-28 16:01 49.79028 13.55595 36174 ft 395 kts 290°
2026-04-28 16:01 49.80976 13.47638 36172 ft 395 kts 290°
2026-04-28 16:02 49.82906 13.39735 36172 ft 395 kts 290°
2026-04-28 16:02 49.84849 13.31772 36174 ft 395 kts 290°
2026-04-28 16:03 49.86781 13.23798 36174 ft 395 kts 290°
2026-04-28 16:03 49.88706 13.15815 36176 ft 395 kts 290°
2026-04-28 16:04 49.90622 13.07828 36186 ft 395 kts 290°
2026-04-28 16:04 49.92535 12.99830 36188 ft 396 kts 290°
2026-04-28 16:05 49.94450 12.91815 36193 ft 396 kts 290°
2026-04-28 16:05 49.96364 12.83797 36185 ft 396 kts 290°
2026-04-28 16:06 49.98276 12.75755 36186 ft 397 kts 290°
2026-04-28 16:06 50.00178 12.67687 36189 ft 398 kts 290°
2026-04-28 16:07 50.02072 12.59609 36185 ft 398 kts 290°
2026-04-28 16:08 50.04909 12.47480 36185 ft 398 kts 290°
2026-04-28 16:08 50.06786 12.39387 36174 ft 398 kts 289°
2026-04-28 16:09 50.09483 12.27149 36189 ft 399 kts 288°
2026-04-28 16:10 50.12119 12.14863 36204 ft 399 kts 288°
2026-04-28 16:10 50.14769 12.02579 36212 ft 399 kts 288°
2026-04-28 16:11 50.18292 11.86142 36217 ft 400 kts 288°
2026-04-28 16:12 50.20938 11.73775 36222 ft 400 kts 288°
2026-04-28 16:13 50.23553 11.61446 36214 ft 401 kts 288°
2026-04-28 16:14 50.27034 11.44870 36208 ft 402 kts 288°
2026-04-28 16:15 50.30504 11.28229 36201 ft 402 kts 288°
2026-04-28 16:15 50.32230 11.19899 36202 ft 402 kts 288°
2026-04-28 16:16 50.34810 11.07385 36203 ft 404 kts 287°
2026-04-28 16:17 50.37395 10.94769 36208 ft 407 kts 288°
2026-04-28 16:17 50.39113 10.86321 36207 ft 407 kts 288°
2026-04-28 16:18 50.40829 10.77864 36205 ft 407 kts 288°
2026-04-28 16:18 50.42525 10.69459 36200 ft 407 kts 287°
2026-04-28 16:19 50.44224 10.60974 36202 ft 408 kts 287°
2026-04-28 16:19 50.45922 10.52468 36194 ft 408 kts 287°
2026-04-28 16:20 50.47619 10.43956 36199 ft 409 kts 287°
2026-04-28 16:20 50.49333 10.35453 36194 ft 408 kts 287°
2026-04-28 16:21 50.51048 10.26949 36191 ft 408 kts 287°
2026-04-28 16:21 50.52759 10.18416 36203 ft 411 kts 287°
2026-04-28 16:22 50.54461 10.09835 36201 ft 411 kts 287°
2026-04-28 16:22 50.56159 10.01245 36202 ft 411 kts 287°
2026-04-28 16:23 50.57847 9.92642 36201 ft 411 kts 287°
2026-04-28 16:23 50.59530 9.84041 36192 ft 411 kts 287°
2026-04-28 16:24 50.61214 9.75416 36194 ft 413 kts 287°
2026-04-28 16:24 50.62899 9.66747 36191 ft 414 kts 287°
2026-04-28 16:25 50.64576 9.58068 36192 ft 414 kts 287°
2026-04-28 16:25 50.66244 9.49380 36187 ft 414 kts 287°
2026-04-28 16:26 50.67907 9.40678 36190 ft 414 kts 286°
2026-04-28 16:26 50.69565 9.31970 36192 ft 416 kts 286°
2026-04-28 16:27 50.71231 9.23205 36193 ft 417 kts 286°
2026-04-28 16:28 50.74035 9.10184 36194 ft 418 kts 290°
2026-04-28 16:28 50.76166 9.01702 36187 ft 418 kts 291°
2026-04-28 16:29 50.79284 8.88829 36189 ft 418 kts 290°
2026-04-28 16:30 50.82294 8.75889 36187 ft 418 kts 289°
2026-04-28 16:30 50.84298 8.67259 36193 ft 418 kts 289°
2026-04-28 16:31 50.86309 8.58628 36190 ft 418 kts 289°
2026-04-28 16:31 50.88316 8.49986 36191 ft 418 kts 289°
2026-04-28 16:32 50.90315 8.41315 36189 ft 420 kts 289°
2026-04-28 16:32 50.93311 8.28265 36186 ft 420 kts 289°
2026-04-28 16:33 50.94642 8.22442 36186 ft 420 kts 289°
2026-04-28 16:33 50.97285 8.10836 36184 ft 420 kts 289°
2026-04-28 16:34 50.98925 8.03585 36176 ft 420 kts 289°
2026-04-28 16:34 51.00902 7.94810 36179 ft 423 kts 289°
2026-04-28 16:35 51.02881 7.85999 36177 ft 424 kts 289°
2026-04-28 16:35 51.04852 7.77178 36171 ft 424 kts 289°
2026-04-28 16:36 51.06820 7.68347 36172 ft 424 kts 289°
2026-04-28 16:36 51.08780 7.59511 36177 ft 424 kts 289°
2026-04-28 16:37 51.10744 7.50628 36176 ft 427 kts 289°
2026-04-28 16:38 51.13693 7.37219 36174 ft 427 kts 289°
2026-04-28 16:38 51.15646 7.28276 36172 ft 428 kts 289°
2026-04-28 16:39 51.17591 7.19336 36174 ft 427 kts 289°
2026-04-28 16:39 51.19533 7.10376 36180 ft 428 kts 289°
2026-04-28 16:40 51.21484 7.01339 36189 ft 431 kts 289°
2026-04-28 16:40 51.23420 6.92313 36195 ft 430 kts 289°
2026-04-28 16:41 51.25341 6.83307 36193 ft 429 kts 289°
2026-04-28 16:41 51.27259 6.74284 36194 ft 429 kts 289°
2026-04-28 16:42 51.29178 6.65233 36191 ft 432 kts 289°
2026-04-28 16:42 51.31100 6.56135 36188 ft 431 kts 288°
2026-04-28 16:43 51.33005 6.47065 36186 ft 428 kts 289°
2026-04-28 16:43 51.34886 6.38101 36194 ft 430 kts 288°
2026-04-28 16:44 51.36779 6.29015 36204 ft 432 kts 288°
2026-04-28 16:44 51.38667 6.19881 36204 ft 433 kts 289°
2026-04-28 16:45 51.40559 6.10682 36211 ft 436 kts 288°
2026-04-28 16:45 51.42451 6.01455 36209 ft 437 kts 289°
2026-04-28 16:46 51.44355 5.92157 36208 ft 441 kts 289°
2026-04-28 16:46 51.46263 5.82802 36208 ft 441 kts 289°
2026-04-28 16:47 51.48158 5.73441 36211 ft 443 kts 289°
2026-04-28 16:47 51.50058 5.64003 36215 ft 446 kts 289°
2026-04-28 16:48 51.51955 5.54523 36193 ft 446 kts 289°
2026-04-28 16:48 51.53848 5.45028 36194 ft 446 kts 289°
2026-04-28 16:49 51.55738 5.35527 36195 ft 446 kts 289°
2026-04-28 16:49 51.57619 5.26014 36195 ft 449 kts 289°
2026-04-28 16:50 51.59467 5.16588 36195 ft 452 kts 289°
2026-04-28 16:50 51.61352 5.06952 36192 ft 453 kts 289°
2026-04-28 16:51 51.63237 4.97279 36192 ft 453 kts 289°
2026-04-28 16:51 51.65116 4.87600 36191 ft 453 kts 288°
2026-04-28 16:52 51.66989 4.77909 36193 ft 454 kts 288°
2026-04-28 16:52 51.68856 4.68150 36207 ft 458 kts 288°
2026-04-28 16:53 51.70654 4.58351 36208 ft 459 kts 287°
2026-04-28 16:53 51.72220 4.48367 36211 ft 459 kts 285°
2026-04-28 16:54 51.73698 4.38347 36211 ft 461 kts 285°
2026-04-28 16:54 51.75224 4.28275 36214 ft 464 kts 286°
2026-04-28 16:55 51.76790 4.18178 36211 ft 463 kts 286°
2026-04-28 16:55 51.78348 4.08108 36210 ft 462 kts 286°
2026-04-28 16:56 51.79882 3.98021 36209 ft 463 kts 286°
2026-04-28 16:56 51.81413 3.87906 36207 ft 463 kts 285°
2026-04-28 16:57 51.82927 3.77774 36212 ft 464 kts 285°
2026-04-28 16:57 51.84441 3.67608 36219 ft 465 kts 285°
2026-04-28 16:58 51.85949 3.57423 36231 ft 466 kts 285°
2026-04-28 16:58 51.87453 3.47238 36237 ft 465 kts 285°
2026-04-28 16:59 51.88943 3.37049 36230 ft 467 kts 285°
2026-04-28 16:59 51.90445 3.26721 36246 ft 471 kts 285°
2026-04-28 17:00 51.91935 3.16381 36250 ft 471 kts 285°
2026-04-28 17:00 51.93422 3.06040 36255 ft 471 kts 285°
2026-04-28 17:00 51.94164 3.00867 36033 ft 471 kts 285°
2026-04-28 17:01 51.94902 2.95693 35442 ft 471 kts 285°
2026-04-28 17:01 51.95631 2.90543 35117 ft 467 kts 285°
2026-04-28 17:01 51.96357 2.85388 34882 ft 471 kts 285°
2026-04-28 17:01 51.97089 2.80185 34659 ft 474 kts 285°
2026-04-28 17:02 51.97819 2.74971 34429 ft 475 kts 285°
2026-04-28 17:02 51.98303 2.71508 34268 ft 476 kts 285°
2026-04-28 17:02 51.99277 2.64499 33902 ft 476 kts 285°
2026-04-28 17:02 52.00000 2.59276 33629 ft 474 kts 284°
2026-04-28 17:03 52.01425 2.48945 33099 ft 470 kts 284°
2026-04-28 17:03 52.02134 2.43778 32810 ft 468 kts 285°
2026-04-28 17:03 52.02835 2.38631 32301 ft 466 kts 285°
2026-04-28 17:04 52.04232 2.28376 31135 ft 464 kts 285°
2026-04-28 17:04 52.04932 2.23261 30556 ft 463 kts 285°
2026-04-28 17:05 52.06313 2.13069 29365 ft 459 kts 285°
2026-04-28 17:05 52.06989 2.08012 28802 ft 456 kts 285°
2026-04-28 17:05 52.07656 2.02986 28243 ft 453 kts 285°
2026-04-28 17:06 52.08973 1.93039 27156 ft 447 kts 285°
2026-04-28 17:06 52.09622 1.88115 26634 ft 444 kts 285°
2026-04-28 17:06 52.10875 1.78555 25642 ft 437 kts 284°
2026-04-28 17:07 52.11498 1.73799 25152 ft 434 kts 284°
2026-04-28 17:07 52.12131 1.68951 24655 ft 431 kts 284°
2026-04-28 17:07 52.12741 1.64259 24167 ft 428 kts 284°
2026-04-28 17:07 52.13355 1.59538 23636 ft 425 kts 284°
2026-04-28 17:08 52.13963 1.54850 23125 ft 421 kts 284°
2026-04-28 17:08 52.14560 1.50217 22630 ft 416 kts 283°
2026-04-28 17:08 52.15146 1.45630 22144 ft 412 kts 284°
2026-04-28 17:08 52.15724 1.41070 21643 ft 409 kts 284°
2026-04-28 17:09 52.16290 1.36548 21156 ft 406 kts 282°
2026-04-28 17:09 52.16760 1.32028 20683 ft 404 kts 280°
2026-04-28 17:09 52.17135 1.27511 20205 ft 401 kts 278°
2026-04-28 17:09 52.17456 1.23007 19715 ft 399 kts 277°
2026-04-28 17:10 52.17762 1.18521 19255 ft 397 kts 277°
2026-04-28 17:10 52.18075 1.14061 18785 ft 395 kts 277°
2026-04-28 17:10 52.18400 1.09631 18290 ft 393 kts 277°
2026-04-28 17:10 52.18734 1.05237 17821 ft 389 kts 278°
2026-04-28 17:11 52.19072 1.00886 17365 ft 385 kts 278°
2026-04-28 17:11 52.19411 0.96571 16907 ft 382 kts 278°
2026-04-28 17:11 52.19744 0.92289 16481 ft 379 kts 278°
2026-04-28 17:11 52.20071 0.88046 16046 ft 376 kts 278°
2026-04-28 17:12 52.20392 0.83829 15610 ft 374 kts 278°
2026-04-28 17:12 52.20709 0.79639 15159 ft 371 kts 277°
2026-04-28 17:12 52.21020 0.75473 14738 ft 369 kts 277°
2026-04-28 17:12 52.21326 0.71341 14471 ft 362 kts 277°
2026-04-28 17:13 52.21621 0.67333 14354 ft 350 kts 277°
2026-04-28 17:13 52.21907 0.63448 14177 ft 341 kts 277°
2026-04-28 17:13 52.22188 0.59638 13922 ft 336 kts 277°
2026-04-28 17:13 52.22464 0.55871 13722 ft 334 kts 277°
2026-04-28 17:14 52.22738 0.52117 13502 ft 332 kts 277°
2026-04-28 17:14 52.23007 0.48386 13287 ft 331 kts 277°
2026-04-28 17:14 52.23276 0.44661 13061 ft 330 kts 277°
2026-04-28 17:14 52.23544 0.40946 12851 ft 329 kts 277°
2026-04-28 17:15 52.23807 0.37291 12638 ft 328 kts 277°
2026-04-28 17:15 52.24074 0.33554 12422 ft 327 kts 277°
2026-04-28 17:15 52.24334 0.29882 12207 ft 325 kts 277°
2026-04-28 17:15 52.24588 0.26228 12001 ft 324 kts 277°
2026-04-28 17:16 52.24843 0.22585 11799 ft 323 kts 277°
2026-04-28 17:16 52.25095 0.18999 11594 ft 322 kts 277°
2026-04-28 17:16 52.25348 0.15382 11396 ft 320 kts 277°
2026-04-28 17:16 52.25599 0.11784 11193 ft 319 kts 277°
2026-04-28 17:17 52.25849 0.08190 10998 ft 318 kts 277°
2026-04-28 17:17 52.26093 0.04609 10799 ft 317 kts 277°
2026-04-28 17:17 52.26333 0.01053 10602 ft 311 kts 277°
2026-04-28 17:17 52.26569 -0.02410 10424 ft 303 kts 276°
2026-04-28 17:18 52.26790 -0.05767 10304 ft 292 kts 273°
2026-04-28 17:18 52.26511 -0.09118 10323 ft 307 kts 247°
2026-04-28 17:18 52.25413 -0.12063 10322 ft 304 kts 221°
2026-04-28 17:18 52.23823 -0.14322 10120 ft 303 kts 215°
2026-04-28 17:19 52.22192 -0.16484 9843 ft 301 kts 212°
2026-04-28 17:19 52.20406 -0.18159 9581 ft 292 kts 196°
2026-04-28 17:19 52.18471 -0.18993 9311 ft 285 kts 181°
2026-04-28 17:19 52.16523 -0.19025 9037 ft 277 kts 167°
2026-04-28 17:20 52.14644 -0.18463 8789 ft 274 kts 163°
2026-04-28 17:20 52.13407 -0.18074 8618 ft 274 kts 165°
2026-04-28 17:20 52.10840 -0.18325 8266 ft 286 kts 194°
2026-04-28 17:20 52.09131 -0.20022 8004 ft 296 kts 221°
2026-04-28 17:21 52.07849 -0.22624 7790 ft 292 kts 230°
2026-04-28 17:21 52.06653 -0.25259 7568 ft 289 kts 230°
2026-04-28 17:21 52.05472 -0.27883 7309 ft 287 kts 230°
2026-04-28 17:22 52.03106 -0.33118 6838 ft 288 kts 230°
2026-04-28 17:22 52.02318 -0.34850 6651 ft 288 kts 229°
2026-04-28 17:22 52.01131 -0.37450 6404 ft 284 kts 229°
2026-04-28 17:23 51.98818 -0.42496 5862 ft 270 kts 229°
2026-04-28 17:23 51.97718 -0.44893 5644 ft 265 kts 229°
2026-04-28 17:23 51.97118 -0.46197 5504 ft 265 kts 230°
2026-04-28 17:23 51.96357 -0.47830 5335 ft 265 kts 229°
2026-04-28 17:24 51.95257 -0.50208 5079 ft 264 kts 230°
2026-04-28 17:24 51.94157 -0.52589 4819 ft 263 kts 230°
2026-04-28 17:24 51.93064 -0.54958 4559 ft 262 kts 231°
2026-04-28 17:24 51.91994 -0.57277 4282 ft 251 kts 232°
2026-04-28 17:25 51.90965 -0.59512 3922 ft 245 kts 233°
2026-04-28 17:25 51.88607 -0.63168 3200 ft 229 kts 193°
2026-04-28 17:25 51.87110 -0.63323 2865 ft 208 kts 166°
2026-04-28 17:26 51.85722 -0.62912 2497 ft 199 kts 162°
2026-04-28 17:26 51.84456 -0.62197 2141 ft 186 kts 135°
2026-04-28 17:26 51.83782 -0.60601 2017 ft 168 kts 99°
2026-04-28 17:26 51.83676 -0.58771 2036 ft 158 kts 78°
2026-04-28 17:27 51.83924 -0.57152 2017 ft 143 kts 69°
2026-04-28 17:27 51.84193 -0.55620 2005 ft 139 kts 69°
2026-04-28 17:27 51.84446 -0.54175 2011 ft 130 kts 69°
2026-04-28 17:27 51.84690 -0.52786 2013 ft 127 kts 69°
2026-04-28 17:28 51.84932 -0.51400 2014 ft 127 kts 68°
2026-04-28 17:28 51.85408 -0.48676 1841 ft 126 kts 69°
2026-04-28 17:28 51.85647 -0.47303 1681 ft 127 kts 69°
2026-04-28 17:29 51.85884 -0.45946 1534 ft 125 kts 69°
2026-04-28 17:29 51.86120 -0.44586 1370 ft 127 kts 70°
2026-04-28 17:29 51.86354 -0.43224 1202 ft 128 kts 71°
2026-04-28 17:30 51.86845 -0.40494 889 ft 129 kts 70°
2026-04-28 17:30 51.87304 -0.37770 544 ft 123 kts 70°
2026-04-28 17:30 51.87526 -0.36380 948 ft 137 kts 69°
2026-04-28 17:31 51.87807 -0.34733 1584 ft 167 kts 69°
2026-04-28 17:31 51.88333 -0.30947 2673 ft 173 kts 74°
2026-04-28 17:32 51.89100 -0.26999 3004 ft 195 kts 49°
2026-04-28 17:32 51.90269 -0.25903 3003 ft 203 kts 15°
2026-04-28 17:32 51.91692 -0.26164 2998 ft 214 kts 346°
2026-04-28 17:32 51.93070 -0.27126 3007 ft 216 kts 341°
2026-04-28 17:33 51.94415 -0.28216 3013 ft 219 kts 333°
2026-04-28 17:33 51.95453 -0.30081 3013 ft 234 kts 302°
2026-04-28 17:33 51.95738 -0.32732 3010 ft 249 kts 266°
2026-04-28 17:33 51.95455 -0.34543 3015 ft 252 kts 256°
2026-04-28 17:34 51.94742 -0.38154 3010 ft 249 kts 255°
2026-04-28 17:34 51.94202 -0.40846 3014 ft 252 kts 255°
2026-04-28 17:34 51.93660 -0.43540 3012 ft 251 kts 255°
2026-04-28 17:34 51.93123 -0.46220 3014 ft 250 kts 255°
2026-04-28 17:35 51.92602 -0.48834 3004 ft 237 kts 255°
2026-04-28 17:35 51.92100 -0.51350 3006 ft 234 kts 255°
2026-04-28 17:35 51.91602 -0.53853 2891 ft 232 kts 255°
2026-04-28 17:35 51.90918 -0.56187 2625 ft 231 kts 230°
2026-04-28 17:36 51.89631 -0.57584 2399 ft 219 kts 193°
2026-04-28 17:36 51.88185 -0.57647 2150 ft 203 kts 165°
2026-04-28 17:36 51.86907 -0.57247 2026 ft 198 kts 161°
2026-04-28 17:36 51.85686 -0.56416 2002 ft 185 kts 136°
2026-04-28 17:37 51.84893 -0.54962 2001 ft 165 kts 105°
2026-04-28 17:37 51.84670 -0.53230 2027 ft 160 kts 82°
2026-04-28 17:37 51.84915 -0.51456 2032 ft 155 kts 69°
2026-04-28 17:37 51.85188 -0.49901 1942 ft 136 kts 69°
2026-04-28 17:38 51.85440 -0.48469 1815 ft 131 kts 69°
2026-04-28 17:38 51.85684 -0.47078 1671 ft 128 kts 69°
2026-04-28 17:38 51.85928 -0.45686 1498 ft 129 kts 70°
2026-04-28 17:38 51.86169 -0.44308 1326 ft 127 kts 69°
2026-04-28 17:39 51.86422 -0.42905 1106 ft 130 kts 71°
2026-04-28 17:39 51.86663 -0.41496 943 ft 132 kts 68°
2026-04-28 17:39 51.87152 -0.38653 631 ft 130 kts 70°
2026-04-28 17:40 51.87379 -0.37290 524 ft 116 kts 69°
2026-04-28 17:40 51.87545 -0.36373 521 ft 43 kts 74°
2026-04-28 17:40 51.87586 -0.36139 517 ft 22 kts 74°
2026-04-28 17:40 51.87640 -0.35919 516 ft 10 kts 23°
2026-04-28 17:41 51.87710 -0.35938 516 ft 11 kts 345°
2026-04-28 17:41 51.87771 -0.36002 516 ft 10 kts 310°
2026-04-28 17:41 51.87780 -0.36095 518 ft 11 kts 259°
2026-04-28 17:41 51.87755 -0.36242 518 ft 14 kts 254°
2026-04-28 17:42 51.87730 -0.36387 519 ft 13 kts 255°
2026-04-28 17:42 51.87716 -0.36472 520 ft 11 kts 254°
2026-04-28 17:42 51.87680 -0.36675 522 ft 15 kts 254°
2026-04-28 17:42 51.87654 -0.36824 525 ft 13 kts 254°
2026-04-28 17:43 51.87623 -0.36997 522 ft 21 kts 253°
2026-04-28 17:43 51.87581 -0.37227 522 ft 18 kts 257°
2026-04-28 17:43 51.87592 -0.37384 522 ft 12 kts 277°
2026-04-28 17:43 51.87636 -0.37465 523 ft 10 kts 330°
2026-04-28 17:44 51.87688 -0.37541 521 ft 12 kts 301°
2026-04-28 17:44 51.87728 -0.37663 520 ft 11 kts 292°
2026-04-28 17:44 51.87752 -0.37752 523 ft 8 kts 295°
2026-04-28 17:44 51.87785 -0.37862 523 ft 11 kts 295°
2026-04-28 17:45 51.87828 -0.37963 523 ft 11 kts 316°
2026-04-28 17:45 51.87875 -0.37976 524 ft 0 kts 57°
2026-04-28 17:45 51.87880 -0.37960 523 ft 2 kts 65°
2026-04-28 17:45 51.87886 -0.37932 523 ft 2 kts 70°
2026-04-28 17:46 51.87888 -0.37922 523 ft 0 kts 70°
2026-04-28 17:46 51.87888 -0.37921 523 ft 0 kts 70°